STARLINK-4684, 53595

Orbit data source: Space-Track

STARLINK-4684, 53595 is a payload satellite owned by SpaceX/Seattle (US) in LEO that was launched on Sun, 28 Aug 2022 UTC via an FALCON 9 launch vehicle from the Air Force Eastern Test Range (AFETR). Payload-class satellites include a variety of spacecraft equipped with specific instruments for various scientific and technological missions. These include communications satellites like Starlink; space stations such as the ISS; scientific satellites like the Hubble; Earth observation satellites from companies like Planet Labs, Umbra, and HawkEye 360; GPS; miniature CubeSats for education and research; and military/defense satellites.

Loading next visibility...
Identifier
53595, 2022-104H
Orbit
LEO
Country
Flag of USUS
Related business
Manufacturer
SpaceX/Seattle
Mission
Operational Commercial Communications
Bus & Motor
STARLINK, Unknown motor
Mass
300 kg wet, ~290 kg dry
Launch date (UTC)
2022-08-28 (3 years ago)
Launch vehicle
FALCON 9
Launch site
Air Force Eastern Test Range (AFETR)
Object type
Payload
Rocket body
Debris
Shape & HBR
Box + 1 Pan, 10.1 m
Radar Cross Section
13.562 m², Large (>1 m²)

Expand to show TLE details & history
Last TLE update: 2 days ago

TLE from 2 days ago
0 STARLINK-4684
1 53595U 22104H   26035.69539828  .00000491  00000-0  48955-4 0  9991
2 53595  53.2190  32.2488 0001595  90.5811 269.5364 15.08835178190966
Epoch: 2026-02-04T16:41Z
TLE epoch observation values (Epoch: 2026-02-04T16:41:22.411Z)
Latitude
-0.00001°
Longitude
7.04712°
Altitude
540.665 km
Speed
7.593 km/s
True Right ascension
02h 08m 59s
True Declination
0° 00' 00"
Sunlit
Object was in daylight at epoch
Visualization orbit readout
Latitude
Unknown
Longitude
Unknown
Altitude
Unknown
Speed
Unknown
Apparent Right ascension
Unknown
Apparent Declination
Unknown
Sunlit
N/A
Visualization observer readout
Local Sidereal Time
09:05:38
Azimuth
Unknown
Elevation
Unknown
Doppler factor
Unknown
Orbital elements
Apogee altitude
541.106 km
Perigee altitude
538.899 km
Semi-major axis
6,918.14 km
Eccentricity
0.00016
Inclination
53.219°
RAAN
32.2488°
Arg. of periapsis
90.5811°
True anomaly
269.51812°
Mean anomaly
269.5364°
Eccentric anomaly
269.52726°
Mean motion
3.77189 °/min
Orbital period
95.44 mins
BSTAR
0.000048955
Loading maneuver chart data...
Computing Atmospheric mass density...
Loading historical data...
Loading historical data...
Loading historical data...
Loading historical data...
Loading historical data...
Loading historical data...
Loading historical data...

Documentation

Showing up to 5 results
|